Tracking 19854 objects as of 23-Sep-2019
HD Live streaming from Space Station
objects crossing your sky now

COSMOS 1058

Track COSMOS 1058 now!
10-day predictions
COSMOS 1058 is classified as:


NORAD ID: 11135
Int'l Code: 1978-109H
Perigee: 1,486.7 km
Apogee: 1,545.3 km
Inclination: 74.0 °
Period: 116.2 minutes
Semi major axis: 7887 km
RCS: 0.7109 m2 (medium)
Launch date: December 5, 1978
Source: Commonwealth of Independent States (former USSR) (CIS)
Launch site: PLESETSK MISSILE AND SPACE COMPLEX (PKMTR)
aabbcc
Your satellite tracking list
Your tracking list is empty




NASA's NSSDC Master Catalog

Two Line Element Set (TLE):
1 11135U 78109H   19265.60950456 -.00000018  00000-0 -17707-4 0  9991
2 11135  74.0207   8.5225 0037110 264.5590 220.9212 12.39466474846156
Source of the keplerian elements: AFSPC